sat.trackr.live / text

‹ back to catalog

STARLINK-5845

NORAD 57050 · 2023-088C

PAYLOAD ACTIVE UNKNOWN

§ Identity

Operator
Country
US
Launch date
2023-06-22
Launch site
AFWTR
Launch vehicle
Mass (kg)
RCS (m²)

Purposes: comms

External: N2YO · Heavens-Above · Gunter

§ Orbital elements

Epoch: 2026-09-19T21:17:24.290880Z

Period
94.27 min
Inclination
43.0028°
Eccentricity
0.0001500
Mean motion
15.27576257 rev/d
Perigee alt
482.0 km
Apogee alt
484.1 km
Semi-major
6,861.2 km
B*
9.8082e-6
RAAN
93.8205°
Arg perigee
241.6914°
Mean anomaly
118.3786°
Rev number
18,003

§ Raw data

STARLINK-58451 57050U 23088C   26262.88708670  .00000008  00000+0  98082-5 0  99992 57050  43.0028  93.8205 0001500 241.6914 118.3786 15.27576257180039

JSON: /api/v1/satellites/57050 · /tle

For live sub-satellite position, see the globe view (requires WebGL).

§ Visibility from observer

Set your observer location to see the next 7 days of passes ≥ 10°. The values pass through the URL so the page stays shareable.

No JS? Fill the form by hand. The geolocation button needs JavaScript.